• In Uzbekistan
  • List of Countries
  • For 7 days
  • Water Temperature
  • Satellite Maps
  • Weather Map
  • Weather Widgets
  • user-avatar
    Login

    Hourly Weather Edinburgh

    Today, 18 October, Wednesday

    Time Temperature Precipitation Wind Pressure Humidity
    00:00 +9°C° 0 mm 2 mps 759 mmHg 92%
    01:00 +9°C° 0 mm 2 mps 759 mmHg 91%
    02:00 +9°C° 0 mm 3 mps 758 mmHg 91%
    03:00 +9°C° 0 mm 3 mps 758 mmHg 91%
    04:00 +9°C° 0 mm 3 mps 758 mmHg 91%
    05:00 +9°C° 0 mm 3 mps 758 mmHg 91%
    06:00 +9°C° 0 mm 3 mps 758 mmHg 92%
    07:00 +9°C° 0 mm 3 mps 758 mmHg 91%
    08:00 +9°C° 0 mm 3 mps 758 mmHg 91%
    09:00 +9°C° 0 mm 3 mps 758 mmHg 91%
    10:00 +10°C° 0 mm 4 mps 758 mmHg 89%
    11:00 +10°C° 0 mm 4 mps 757 mmHg 87%
    12:00 +11°C° 0 mm 4 mps 757 mmHg 85%
    13:00 +11°C° 0 mm 4 mps 757 mmHg 85%
    14:00 +11°C° 0 mm 4 mps 756 mmHg 84%
    15:00 +11°C° 0 mm 4 mps 756 mmHg 84%
    16:00 +11°C° 0 mm 4 mps 756 mmHg 86%
    17:00 +10°C° 0 mm 4 mps 755 mmHg 87%
    18:00 +10°C° 0 mm 4 mps 755 mmHg 89%
    19:00 +10°C° 0 mm 4 mps 755 mmHg 90%
    20:00 +8°C° 0 mm 4 mps 754 mmHg 90%
    21:00 +8°C° 0 mm 4 mps 754 mmHg 91%
    22:00 +10°C° 0.1 mm 4 mps 753 mmHg 91%
    23:00 +10°C° 0.1 mm 4 mps 753 mmHg 92%

    Tomorrow, 19 October, Thursday

    Time Temperature Precipitation Wind Pressure Humidity
    00:00 +10°C° 0.1 mm 4 mps 752 mmHg 92%
    01:00 +10°C° 0.2 mm 4 mps 752 mmHg 93%
    02:00 +10°C° 0.2 mm 4 mps 751 mmHg 93%
    03:00 +10°C° 0.2 mm 4 mps 751 mmHg 94%
    04:00 +11°C° 0.2 mm 4 mps 751 mmHg 94%
    05:00 +11°C° 0.2 mm 4 mps 750 mmHg 94%
    06:00 +11°C° 0.2 mm 3 mps 750 mmHg 95%
    07:00 +11°C° 0.1 mm 3 mps 750 mmHg 94%
    08:00 +12°C° 0.1 mm 3 mps 750 mmHg 93%
    09:00 +12°C° 0.1 mm 3 mps 750 mmHg 92%
    10:00 +13°C° 0.1 mm 3 mps 750 mmHg 91%
    11:00 +13°C° 0.1 mm 4 mps 750 mmHg 89%
    12:00 +14°C° 0.1 mm 4 mps 750 mmHg 88%
    13:00 +14°C° 0.1 mm 4 mps 749 mmHg 88%
    14:00 +14°C° 0.1 mm 3 mps 749 mmHg 88%
    15:00 +14°C° 0.1 mm 3 mps 748 mmHg 88%
    16:00 +13°C° 0.1 mm 3 mps 748 mmHg 90%
    17:00 +13°C° 0.1 mm 3 mps 748 mmHg 92%
    18:00 +12°C° 0.1 mm 3 mps 748 mmHg 94%
    19:00 +13°C° 0.3 mm 2 mps 748 mmHg 95%
    20:00 +13°C° 0.3 mm 2 mps 747 mmHg 95%
    21:00 +13°C° 0.3 mm 2 mps 747 mmHg 96%
    22:00 +13°C° 0.1 mm 2 mps 747 mmHg 97%
    23:00 +13°C° 0.1 mm 2 mps 747 mmHg 97%

    Day after tomorrow, 20 October, Friday

    Time Temperature Precipitation Wind Pressure Humidity
    00:00 +13°C° 0.1 mm 1 mps 747 mmHg 97%
    01:00 +13°C° 0 mm 1 mps 747 mmHg 97%
    02:00 +12°C° 0 mm 1 mps 747 mmHg 97%
    03:00 +12°C° 0 mm 1 mps 747 mmHg 97%
    04:00 +12°C° 0.1 mm 2 mps 748 mmHg 97%
    05:00 +12°C° 0.1 mm 2 mps 748 mmHg 97%
    06:00 +12°C° 0.1 mm 2 mps 748 mmHg 97%
    07:00 +12°C° 0.1 mm 2 mps 748 mmHg 96%
    08:00 +13°C° 0.1 mm 2 mps 749 mmHg 95%
    09:00 +13°C° 0.1 mm 2 mps 749 mmHg 94%
    10:00 +13°C° 0 mm 2 mps 749 mmHg 92%
    11:00 +14°C° 0 mm 2 mps 749 mmHg 89%
    12:00 +15°C° 0 mm 1 mps 749 mmHg 86%
    13:00 +15°C° 0 mm 2 mps 749 mmHg 86%
    14:00 +15°C° 0 mm 2 mps 748 mmHg 86%
    15:00 +15°C° 0 mm 2 mps 748 mmHg 86%
    16:00 +14°C° 0.1 mm 3 mps 748 mmHg 88%
    17:00 +14°C° 0.1 mm 3 mps 748 mmHg 90%
    18:00 +13°C° 0.1 mm 3 mps 747 mmHg 92%
    19:00 +13°C° 0.2 mm 4 mps 747 mmHg 93%
    20:00 +13°C° 0.2 mm 4 mps 746 mmHg 93%
    21:00 +13°C° 0.2 mm 4 mps 745 mmHg 93%
    22:00 +13°C° 1 mm 5 mps 745 mmHg 93%
    23:00 +13°C° 1 mm 5 mps 744 mmHg 93%

    21 October, Saturday

    Time Temperature Precipitation Wind Pressure Humidity
    00:00 +12°C° 1 mm 5 mps 743 mmHg 93%
    01:00 +12°C° 1.1 mm 5 mps 743 mmHg 93%
    02:00 +12°C° 1.1 mm 5 mps 742 mmHg 93%
    03:00 +10°C° 1.1 mm 5 mps 741 mmHg 92%
    04:00 +10°C° 0.4 mm 5 mps 741 mmHg 92%
    05:00 +10°C° 0.4 mm 5 mps 740 mmHg 91%
    06:00 +11°C° 0.4 mm 4 mps 740 mmHg 91%
    07:00 +10°C° 0.1 mm 5 mps 740 mmHg 89%
    08:00 +10°C° 0.1 mm 6 mps 739 mmHg 87%
    09:00 +10°C° 0.1 mm 6 mps 739 mmHg 86%
    10:00 +10°C° 0.7 mm 6 mps 738 mmHg 86%
    11:00 +10°C° 0.7 mm 7 mps 737 mmHg 86%
    12:00 +10°C° 0.7 mm 7 mps 736 mmHg 86%
    13:00 +10°C° 0.2 mm 6 mps 736 mmHg 86%
    14:00 +10°C° 0.2 mm 6 mps 735 mmHg 86%
    15:00 +12°C° 0.2 mm 5 mps 734 mmHg 86%
    16:00 +10°C° 0.1 mm 5 mps 735 mmHg 88%
    17:00 +10°C° 0.1 mm 5 mps 735 mmHg 89%
    18:00 +10°C° 0.1 mm 4 mps 735 mmHg 90%
    19:00 +9°C° 0.2 mm 5 mps 735 mmHg 91%
    20:00 +9°C° 0.2 mm 6 mps 736 mmHg 91%
    21:00 +9°C° 0.2 mm 6 mps 737 mmHg 92%
    22:00 +9°C° 0.4 mm 7 mps 738 mmHg 90%
    23:00 +9°C° 0.4 mm 8 mps 738 mmHg 89%

    22 October, Sunday

    Time Temperature Precipitation Wind Pressure Humidity
    00:00 +10°C° 0.4 mm 9 mps 739 mmHg 88%
    01:00 +10°C° 0.3 mm 9 mps 740 mmHg 87%
    02:00 +8°C° 0.3 mm 9 mps 740 mmHg 86%
    03:00 +8°C° 0.3 mm 9 mps 741 mmHg 85%
    04:00 +9°C° 0.1 mm 8 mps 741 mmHg 87%
    05:00 +9°C° 0.1 mm 8 mps 742 mmHg 88%
    06:00 +9°C° 0.1 mm 7 mps 743 mmHg 90%
    07:00 +10°C° 0.2 mm 8 mps 743 mmHg 88%
    08:00 +10°C° 0.2 mm 8 mps 744 mmHg 87%
    09:00 +10°C° 0.2 mm 8 mps 745 mmHg 86%
    10:00 +10°C° 0.1 mm 9 mps 746 mmHg 85%
    11:00 +10°C° 0.1 mm 9 mps 747 mmHg 83%
    12:00 +10°C° 0.1 mm 9 mps 748 mmHg 82%
    13:00 +10°C° 0.1 mm 9 mps 749 mmHg 83%
    14:00 +10°C° 0.1 mm 9 mps 750 mmHg 84%
    15:00 +8°C° 0.1 mm 9 mps 750 mmHg 85%
    16:00 +8°C° 0.1 mm 9 mps 751 mmHg 85%
    17:00 +9°C° 0.1 mm 8 mps 752 mmHg 86%
    18:00 +9°C° 0.1 mm 8 mps 752 mmHg 86%
    19:00 +9°C° 0 mm 7 mps 753 mmHg 86%
    20:00 +9°C° 0 mm 6 mps 754 mmHg 86%
    21:00 +8°C° 0 mm 5 mps 754 mmHg 86%
    22:00 +8°C° 0 mm 5 mps 754 mmHg 87%
    23:00 +8°C° 0 mm 4 mps 754 mmHg 89%

    23 October, Monday

    Time Temperature Precipitation Wind Pressure Humidity
    00:00 +9°C° 0 mm 3 mps 755 mmHg 90%
    01:00 +8°C° 0.1 mm 3 mps 754 mmHg 91%
    02:00 +8°C° 0.1 mm 3 mps 754 mmHg 92%
    03:00 +8°C° 0.1 mm 3 mps 754 mmHg 94%
    04:00 +8°C° 0.5 mm 4 mps 754 mmHg 94%
    05:00 +10°C° 0.5 mm 4 mps 753 mmHg 94%
    06:00 +10°C° 0.5 mm 5 mps 753 mmHg 94%
    07:00 +10°C° 0.6 mm 5 mps 752 mmHg 94%
    08:00 +12°C° 0.6 mm 5 mps 752 mmHg 94%
    09:00 +13°C° 0.6 mm 5 mps 752 mmHg 94%
    10:00 +13°C° 0.3 mm 6 mps 752 mmHg 93%
    11:00 +14°C° 0.3 mm 6 mps 752 mmHg 92%
    12:00 +14°C° 0.3 mm 6 mps 752 mmHg 91%
    13:00 +15°C° 0.5 mm 6 mps 751 mmHg 91%
    14:00 +15°C° 0.5 mm 7 mps 751 mmHg 92%
    15:00 +15°C° 0.5 mm 7 mps 751 mmHg 92%
    16:00 +15°C° 0.4 mm 7 mps 751 mmHg 92%
    17:00 +15°C° 0.4 mm 7 mps 752 mmHg 93%
    18:00 +14°C° 0.4 mm 7 mps 752 mmHg 93%
    19:00 +14°C° 0.3 mm 6 mps 752 mmHg 94%
    20:00 +14°C° 0.3 mm 5 mps 752 mmHg 94%
    21:00 +14°C° 0.3 mm 4 mps 752 mmHg 95%
    22:00 +14°C° 0.4 mm 4 mps 753 mmHg 96%
    23:00 +14°C° 0.4 mm 4 mps 753 mmHg 96%
    Show more